Home > Weather > São Paulo > Past weeks

Flag for Brazil Weather for the Past 2 Weeks in São Paulo, São Paulo, Brazil

Now
59 °F

Scattered clouds.


Feels Like: 58 °F
Forecast: 60 / 76 °F
Wind: 6 mph from East

Location: Sao Paulo Airport

Current Time: May 3, 2016 at 9:30:04 AM

Latest Report: May 3, 2016 at 8:00 AM


Visibility: N/A

Pressure: 30.21 "Hg (27.59 "Hg at 765m altitude)

Humidity: 77%

Dew Point: 52 °F

Location of São PauloLocation

Historic Weather in São Paulo — Graph

°F

São Paulo Temperature Yesterday

Maximum temperature yesterday: 73 °F (at 3:00 PM)
Minimum temperature yesterday: 54 °F (at 12:00 AM)
Average temperature yesterday: 61 °F

High & Low Weather Summary for the Past Weeks

 TemperatureHumidityPressure
High88 °F (Apr 18, 12:00 PM)88% (Apr 27, 7:00 AM)30.27 "Hg (Apr 27, 7:00 AM)
Low52 °F (May 1, 6:00 AM)27% (Apr 21, 3:00 PM)29.83 "Hg (Apr 26, 3:00 AM)
Average70 °F64%30.09 "Hg
* Reported Apr 18 8:00 AM — May 3 8:00 AM, São Paulo, Weather by CustomWeather, © 2016

Note: Actual official high and low records may vary slightly from our data, if they occured in-between our weather recording intervals... More about our weather records

Advertising

São Paulo Weather History for the Previous 24 Hours

Scroll right to see more
 ConditionsComfort  
Time TempWeatherWind HumidityBarometerVisibility
8:00 AM
Tue, May 3
59 °FScattered clouds.6 mph77%30.21 "HgN/A
7:00 AM57 °FPartly sunny.7 mph82%30.18 "HgN/A
6:00 AM57 °FPartly sunny.6 mph82%30.18 "HgN/A
5:03 AM57 °FMostly cloudy.7 mph82%30.18 "HgN/A
4:00 AM57 °FPartly cloudy.3 mph88%30.18 "HgN/A
3:00 AM59 °FPassing clouds.5 mph82%30.18 "HgN/A
2:00 AM57 °FPassing clouds.3 mph88%30.18 "HgN/A
1:00 AM59 °FPassing clouds.5 mph82%30.21 "HgN/A
12:00 AM61 °FPassing clouds.7 mph77%30.21 "HgN/A
11:01 PM
Mon, May 2
61 °FOvercast.5 mph77%30.21 "HgN/A
10:00 PM61 °FPassing clouds.5 mph83%30.24 "HgN/A
9:00 PM61 °FOvercast.6 mph77%30.24 "HgN/A
8:00 PM61 °FPassing clouds.7 mph83%30.24 "HgN/A
7:00 PM61 °FPassing clouds.9 mph83%30.21 "HgN/A
6:00 PM63 °FClear.9 mph77%30.18 "Hg10 mi
5:00 PM66 °FClear.10 mph68%30.18 "Hg10 mi
4:00 PM68 °FSunny.14 mph64%30.18 "Hg10 mi
3:00 PM73 °FPassing clouds.6 mph36%30.15 "HgN/A
2:00 PM72 °FSunny.7 mph41%30.18 "Hg10 mi
1:00 PM72 °FPassing clouds.9 mph44%30.21 "HgN/A
12:00 PM68 °FPassing clouds.9 mph49%30.24 "HgN/A
11:00 AM68 °FPassing clouds.6 mph53%30.24 "HgN/A
10:00 AM63 °FPassing clouds.9 mph59%30.27 "HgN/A
9:00 AM61 °FPassing clouds.7 mph63%30.27 "HgN/A
Weather by CustomWeather, © 2016

See weather overviewHow to use our weather pages